#timestamp,LO_Frequency,Hit,StdDev 
1587434415.2,286047003.6,P
1587434435.1,286047002.4,P
1587434436.0,286047002.4,N
1587434455.8,286046999.9,N
1587434475.6,286047001.8,N
1587434495.5,286047001.3,N
1587434515.3,286047003.0,N
1587434535.2,286047007.3,Y
1587434555.9,286047006.1,P
1587434575.7,286047008.1,P
1587434595.6,286047006.7,N
1587434615.4,286047012.0,Y
1587434635.3,286047002.0,P
1587434655.1,286047003.1,N
1587434656.0,286047003.1,N
1587434675.8,286047008.7,Y
1587434695.7,286047003.5,P
1587434715.5,286047004.1,P
1587434735.4,286046998.9,P
1587434755.2,286047000.6,N
1587434775.0,286047009.9,Y
1587434775.9,286047009.9,P
1587434795.8,286047007.6,N
1587434815.6,286047008.8,N
1587434835.5,286047012.7,Y
1587434855.3,286047007.6,P
1587434875.1,286047008.4,P
1587434895.9,286047008.7,P
1587434915.7,286047006.5,Y
1587434935.6,286046997.6,P
1587434955.4,286046999.2,N
1587434975.2,286046993.3,N
1587434995.1,286046999.5,N
1587434996.0,286046999.5,N
1587435015.8,286046994.1,N
1587435035.6,286046999.9,N
1587435055.5,286046995.8,N
1587435075.3,286046994.3,N
1587435095.2,286046994.6,N
1587435115.9,286046998.7,N
1587435135.7,286046996.8,N
1587435155.6,286047002.1,N
1587435175.4,286046996.7,N
1587435195.3,286046995.4,N
1587435215.1,286046991.8,N
1587435235.9,286046992.1,N
1587435255.7,286046997.7,N
1587435275.6,286046995.3,N
1587435295.4,286046995.5,N
1587435315.3,286046993.7,N
1587435335.1,286046997.9,N
1587435355.8,286047005.8,N
1587435375.7,286047003.6,N
1587435395.5,286047002.7,N
1587435415.4,286047002.2,N
1587435435.2,286047002.1,N
1587435455.0,286047009.0,N
1587435456.0,286047009.0,N
1587435475.8,286047009.5,N
1587435495.6,286047013.6,N
1587435515.5,286047013.5,N
1587435535.3,286047007.9,N
1587435555.1,286047010.1,N
1587435575.9,286047011.4,N
1587435595.7,286047008.1,N
1587435615.6,286047011.1,N
1587435635.4,286047011.1,N
1587435655.2,286047012.5,N
1587435675.1,286047020.2,N
1587435676.0,286047020.2,N
1587435695.8,286047019.9,N
1587435715.6,286047019.9,N
1587435735.5,286047022.0,N
1587435755.3,286047026.7,N
1587435775.2,286047025.8,N
1587435795.9,286047028.2,Y
1587435815.7,286047022.7,P
1587435835.6,286047024.9,P
1587435855.4,286047025.0,P
1587435875.2,286047020.5,Y
1587435895.1,286047002.1,P
1587435896.0,286047002.1,N
1587435915.8,286046999.7,N
1587435935.7,286047000.6,N
1587435955.5,286047005.5,N
1587435975.3,286047006.5,N
1587435995.2,286047005.1,N
1587436015.0,286047004.3,N
1587436015.9,286047004.3,N
1587436035.8,286047009.2,N
1587436055.6,286047008.4,N
1587436075.4,286047003.3,N
1587436095.3,286046999.7,N
1587436115.1,286046998.3,N
1587436135.8,286047001.1,N
1587436155.7,286047001.1,N
1587436175.5,286047007.2,N
1587436195.4,286047011.2,N
1587436215.2,286047013.7,N
1587436235.0,286047012.8,N
1587436235.9,286047012.8,N
1587436255.8,286047014.5,N
1587436275.6,286047011.3,N
1587436295.4,286047013.6,N
1587436315.3,286047014.0,N
1587436335.1,286047009.1,N
1587436355.9,286047010.1,N
1587436375.7,286047005.9,N
1587436395.5,286047005.8,N
1587436415.4,286047003.2,N
1587436435.2,286047004.5,N
1587436455.0,286047003.9,N
1587436455.9,286047003.9,N
1587436475.8,286047000.4,N
1587436495.6,286047001.5,N
1587436515.5,286047003.5,N
1587436535.3,286047000.9,N
1587436555.1,286047000.8,N
1587436575.9,286047005.6,N
1587436595.7,286047005.0,N
1587436615.5,286047005.2,N
1587436635.4,286047001.3,N
1587436655.2,286047002.2,N
1587436675.1,286047002.6,N
1587436676.0,286047002.6,N
1587436695.8,286047005.3,N
1587436715.6,286047006.9,N
1587436735.5,286047006.7,N
1587436755.3,286047009.3,N
1587436775.2,286047008.0,N
1587436795.9,286047014.9,Y
1587436815.7,286047000.5,P
1587436835.6,286046998.2,N
1587436855.4,286046998.4,N
1587436875.2,286046997.2,N
1587436895.1,286046997.5,N
1587436896.0,286046997.5,N
1587436915.8,286046998.2,N
1587436935.7,286046995.7,N
1587436955.5,286046994.8,N
1587436975.3,286046997.5,N
1587436995.2,286046998.7,N
1587437015.9,286047002.0,N
1587437035.7,286047004.1,N
1587437055.6,286047010.7,Y
1587437075.4,286047006.0,P
1587437095.3,286047006.1,N
1587437115.1,286047008.6,N
1587437116.0,286047008.6,N
1587437135.8,286047013.8,Y
1587437155.7,286047006.1,P
1587437175.5,286047002.2,P
1587437195.3,286047002.8,N
1587437215.2,286047002.2,N
1587437235.0,286047005.3,Y
1587437235.9,286047005.3,P
1587437255.8,286047000.8,N
1587437275.6,286047000.2,N
1587437295.4,286047002.3,N
1587437315.3,286047001.8,N
1587437335.1,286047002.6,N
1587437355.8,286047002.6,N
1587437375.7,286047005.5,Y
1587437395.5,286047006.2,P
1587437415.4,286047008.6,P
1587437435.2,286047010.5,P
1587437455.0,286047011.9,Y
1587437455.9,286047011.9,P
1587437475.8,286046998.3,N
1587437495.6,286046998.5,N
1587437515.5,286047000.4,N
1587437535.3,286046998.1,N
1587437555.1,286046994.1,N
1587437575.9,286046992.8,N
1587437595.7,286046993.1,N
1587437615.5,286046996.1,N
1587437635.4,286047000.2,N
1587437655.2,286047000.6,N
1587437675.0,286047002.7,N
1587437676.0,286047002.7,N
1587437695.8,286046999.6,N
1587437715.6,286046999.8,N
1587437735.5,286047002.4,N
1587437755.3,286046999.8,N
1587437775.1,286047006.0,N
1587437795.9,286047005.9,N
1587437815.7,286047004.3,N
1587437835.6,286047009.0,N
1587437855.4,286047003.7,N
1587437875.2,286046999.7,N
1587437895.1,286046998.6,N
1587437896.0,286046998.6,N
1587437915.8,286046997.5,N
1587437935.6,286046997.1,N
1587437955.5,286046997.0,N
1587437975.3,286047002.4,N
1587437995.2,286047002.7,N
